Weather in Novotroickoe

Ukraine / Kherson District     46°21′15″N   34°20′10″E
temp.,
°C
wind,
m/s
gust,
m/s
humid.,
%
clouds,
%
prec.,
mm/h
press.,
hPa
HPBL,
m
17 april, sat
sat1700:00+6wsw46893 0.0 1020159
03:00+5sw46915 0.0 1020145
06:00+5sw45915 0.0 1021132
09:00+8sw45763 0.0 1022375
12:00+11wsw345916 0.0 1022802
15:00+13sw3349100 0.0 1021999
18:00+11se556315 0.0 1021306
21:00+8se47725 0.0 1020118
18 april, sun
sun1800:00+7ese367891 0.0 101993
03:00+7e3581100 0.0 1019106
06:00+7ne4574100 0.0 101999
09:00+10e565983 0.0 1018472
12:00+12ese666873 0.0 1018847
15:00+11se557673 0.0 1017697
18:00+11ese567698 0.0 1016479
21:00+10e4786100 0.1 1017224
19 april, mon
mon1900:00+9ese3489100 0.1 1017195
03:00+9ne3490100 0.3 1016133
06:00+9ene2490100 0.3 1016129
09:00+10ene4686100 0.4 1015250
12:00+13e567469 0.0 1014669
15:00+12ese6677100 0.0 1014627
18:00+11ese5787100 0.2 1013353
21:00+10e5894100 1.3 1011270
20 april, tue
tue2000:00+10ene61095100 0.7 1007306
03:00+10e61098100 6.6 1004312
06:00+10se469997 3.3 1001124
09:00+10sse41099100 6.0 999378
12:00+12ssw11158390 0.7 998761
15:00+12ssw121779100 0.9 997966
18:00+10sw131892100 0.2 996885
21:00+9wsw152089100 0.6 1001782
21 april, wed
wed2100:00+9wsw111688100 0.8 1008971
03:00+9wsw8138992 0.9 1011432
06:00+9wsw61089100 0.0 1013439
09:00+10wsw7107831 0.0 1016628
12:00+12wsw6863100 0.0 1017785
15:00+13wsw565672 0.0 1017677
18:00+11s3477100 0.8 1018253
21:00+10ssw3792100 2.3 1020207